Total_Precipitation_Accumulation
0.00 0.00 0.00 0.00 0.00 0.00 0.00 0.00 0.01 0.01 0.01 0.01 0.03 0.08 0.12 0.13 0.13 0.16 0.21 0.29 0.34 0.36 0.45 0.77 1.23 1.81 2.23 2.47 2.52 2.60 2.56 2.58 2.62 2.63 2.67 2.86 3.06 3.14 3.12 3.18 3.16 3.04 2.98 3.00
0.00 0.00 0.00 0.00 0.00 0.00 0.00 0.00 0.01 0.03 0.03 0.04 0.05 0.12 0.18 0.19 0.20 0.25 0.34 0.37 0.37 0.41 0.51 0.84 1.19 1.57 1.93 2.22 2.40 2.51 2.46 2.64 2.89 3.21 3.61 3.93 4.15 4.08 3.96 3.89 3.80 3.67 3.57 3.47
0.00 0.00 0.00 0.00 0.00 0.00 0.00 0.00 0.01 0.04 0.06 0.07 0.09 0.20 0.24 0.26 0.30 0.33 0.38 0.44 0.45 0.46 0.58 0.84 1.02 1.23 1.53 1.89 2.15 2.33 2.54 2.96 3.43 3.92 4.57 5.03 4.98 4.68 4.53 4.25 4.15 3.91 3.63 3.55
0.00 0.00 0.00 0.00 0.00 0.00 0.01 0.01 0.02 0.03 0.05 0.09 0.10 0.23 0.35 0.40 0.43 0.44 0.45 0.44 0.44 0.45 0.50 0.69 0.92 1.12 1.36 1.74 2.11 2.41 2.78 3.28 3.89 4.37 4.83 5.14 5.19 5.00 4.76 4.32 3.96 3.58 3.25 3.06
0.00 0.00 0.00 0.01 0.00 0.00 0.01 0.02 0.03 0.02 0.02 0.05 0.11 0.23 0.46 0.53 0.48 0.47 0.44 0.41 0.37 0.38 0.41 0.52 0.68 0.90 1.20 1.61 2.04 2.40 2.73 3.29 3.84 4.35 4.71 4.93 5.05 4.94 4.61 4.00 3.43 3.07 2.78 2.57
0.00 0.00 0.01 0.01 0.00 0.00 0.00 0.01 0.03 0.04 0.04 0.09 0.09 0.22 0.54 0.75 0.66 0.54 0.50 0.43 0.39 0.36 0.39 0.47 0.60 0.75 1.04 1.39 1.75 2.11 2.45 3.10 3.74 4.26 4.64 4.88 4.91 4.63 4.08 3.51 2.99 2.69 2.47 2.25
0.02 0.02 0.02 0.01 0.01 0.01 0.01 0.02 0.09 0.12 0.12 0.12 0.11 0.28 0.63 0.76 0.70 0.60 0.54 0.46 0.41 0.36 0.38 0.44 0.56 0.67 0.94 1.26 1.56 1.91 2.27 2.71 3.19 3.57 3.79 3.94 3.96 3.78 3.49 3.14 2.73 2.41 2.21 2.00
0.06 0.05 0.03 0.02 0.01 0.01 0.01 0.03 0.11 0.16 0.16 0.16 0.25 0.52 0.80 0.77 0.71 0.65 0.57 0.49 0.45 0.43 0.44 0.48 0.58 0.69 0.81 1.05 1.34 1.68 1.97 2.25 2.48 2.64 2.82 2.82 2.78 2.71 2.59 2.29 1.97 1.71 1.50 1.37
0.08 0.08 0.04 0.02 0.01 0.01 0.02 0.03 0.04 0.07 0.09 0.19 0.47 0.69 0.94 0.87 0.87 0.76 0.67 0.60 0.54 0.51 0.50 0.55 0.63 0.70 0.81 0.94 1.14 1.32 1.45 1.61 1.67 1.65 1.66 1.71 1.75 1.72 1.61 1.44 1.23 1.00 0.84 0.75
0.09 0.07 0.06 0.03 0.02 0.02 0.03 0.03 0.05 0.10 0.16 0.28 0.47 0.76 1.07 1.13 1.07 0.86 0.70 0.59 0.50 0.49 0.50 0.55 0.65 0.72 0.78 0.84 1.01 1.10 1.10 1.07 1.10 1.15 1.15 1.12 1.13 1.13 1.11 1.05 0.94 0.81 0.69 0.59
0.08 0.10 0.08 0.05 0.06 0.08 0.06 0.06 0.07 0.13 0.17 0.32 0.57 0.99 1.11 1.28 1.22 1.02 0.87 0.68 0.58 0.55 0.59 0.65 0.66 0.64 0.65 0.68 0.72 0.78 0.82 0.85 0.85 0.86 0.87 0.86 0.80 0.75 0.74 0.76 0.73 0.65 0.57 0.50
0.09 0.10 0.16 0.12 0.09 0.09 0.07 0.08 0.10 0.20 0.25 0.29 0.54 1.17 1.18 1.43 1.39 1.20 1.01 0.79 0.72 0.71 0.69 0.66 0.63 0.60 0.60 0.64 0.68 0.69 0.70 0.69 0.71 0.70 0.68 0.66 0.59 0.56 0.56 0.55 0.54 0.49 0.46 0.45
0.09 0.14 0.26 0.31 0.27 0.17 0.12 0.09 0.12 0.14 0.21 0.29 0.51 1.19 1.31 1.36 1.34 1.08 0.91 0.82 0.87 0.92 0.89 0.80 0.72 0.64 0.61 0.63 0.64 0.60 0.58 0.54 0.48 0.45 0.45 0.49 0.47 0.46 0.49 0.46 0.44 0.46 0.44 0.42
0.08 0.22 0.40 0.60 0.53 0.29 0.23 0.15 0.12 0.15 0.26 0.33 0.51 0.86 1.07 1.19 1.10 0.98 0.90 0.92 1.04 1.07 0.94 0.80 0.73 0.66 0.64 0.61 0.57 0.53 0.49 0.45 0.41 0.37 0.35 0.38 0.39 0.38 0.40 0.41 0.39 0.38 0.36 0.35
0.09 0.23 0.29 0.28 0.22 0.22 0.24 0.20 0.17 0.19 0.24 0.41 0.61 0.78 0.96 1.17 1.24 1.19 1.07 1.01 1.06 1.05 0.99 0.90 0.80 0.73 0.67 0.63 0.56 0.51 0.46 0.40 0.37 0.37 0.36 0.37 0.37 0.36 0.36 0.36 0.36 0.33 0.29 0.25
0.10 0.18 0.23 0.26 0.22 0.22 0.26 0.26 0.25 0.25 0.35 0.50 0.67 0.94 1.22 1.36 1.38 1.30 1.21 1.14 1.14 1.07 1.02 0.97 0.88 0.79 0.71 0.69 0.66 0.60 0.54 0.46 0.42 0.44 0.44 0.40 0.37 0.37 0.38 0.35 0.32 0.29 0.26 0.23
0.12 0.20 0.32 0.34 0.24 0.31 0.53 0.45 0.42 0.42 0.45 0.59 0.75 0.95 1.16 1.29 1.39 1.42 1.36 1.31 1.28 1.18 1.14 1.09 1.00 0.89 0.82 0.77 0.70 0.67 0.60 0.53 0.49 0.48 0.44 0.39 0.33 0.33 0.32 0.29 0.27 0.24 0.21 0.19
0.14 0.22 0.32 0.34 0.41 0.70 0.72 0.41 0.39 0.48 0.41 0.44 0.58 0.68 0.84 1.05 1.15 1.23 1.31 1.38 1.43 1.35 1.27 1.16 1.08 1.02 0.96 0.87 0.78 0.70 0.59 0.50 0.45 0.41 0.38 0.32 0.28 0.29 0.27 0.26 0.24 0.20 0.20 0.22
0.10 0.22 0.41 0.43 0.58 0.74 0.67 0.33 0.30 0.50 0.57 0.45 0.44 0.49 0.57 0.62 0.81 1.06 1.14 1.17 1.31 1.33 1.28 1.18 1.08 1.01 0.94 0.86 0.74 0.62 0.53 0.43 0.37 0.34 0.31 0.27 0.23 0.21 0.21 0.21 0.22 0.21 0.23 0.27
0.09 0.18 0.44 0.58 0.78 0.84 0.65 0.25 0.22 0.45 0.76 0.55 0.54 0.54 0.60 0.65 0.81 0.90 0.89 0.94 1.05 1.11 1.10 1.07 1.03 0.95 0.83 0.72 0.58 0.51 0.47 0.38 0.31 0.28 0.25 0.23 0.21 0.20 0.22 0.24 0.24 0.21 0.24 0.28
0.30 0.33 0.47 0.64 0.83 0.80 0.38 0.19 0.28 0.67 0.77 0.56 0.61 0.69 0.72 0.79 0.82 0.70 0.68 0.79 0.90 0.96 0.98 0.93 0.86 0.78 0.67 0.55 0.46 0.41 0.38 0.33 0.23 0.18 0.17 0.18 0.19 0.19 0.17 0.23 0.25 0.24 0.25 0.26
0.52 0.57 0.61 0.68 0.82 0.84 0.31 0.22 0.44 0.54 0.38 0.44 0.53 0.53 0.60 0.59 0.58 0.61 0.65 0.75 0.83 0.89 0.88 0.82 0.73 0.62 0.49 0.39 0.35 0.34 0.28 0.20 0.14 0.14 0.15 0.16 0.16 0.14 0.13 0.20 0.23 0.23 0.26 0.26
0.59 0.63 0.65 0.72 0.80 0.57 0.29 0.22 0.22 0.25 0.30 0.35 0.42 0.41 0.46 0.52 0.53 0.55 0.62 0.71 0.79 0.76 0.68 0.59 0.50 0.44 0.35 0.28 0.27 0.27 0.20 0.13 0.11 0.14 0.17 0.17 0.15 0.15 0.14 0.16 0.18 0.19 0.22 0.22
0.68 0.54 0.59 0.62 0.62 0.44 0.29 0.20 0.17 0.18 0.22 0.27 0.34 0.40 0.44 0.51 0.53 0.53 0.56 0.58 0.59 0.57 0.49 0.41 0.36 0.34 0.30 0.22 0.19 0.17 0.11 0.09 0.12 0.18 0.18 0.16 0.18 0.19 0.15 0.14 0.12 0.12 0.14 0.15
0.54 0.61 0.76 0.80 0.74 0.54 0.39 0.27 0.22 0.23 0.27 0.32 0.39 0.42 0.42 0.43 0.49 0.51 0.51 0.47 0.41 0.36 0.32 0.28 0.28 0.27 0.22 0.18 0.14 0.11 0.09 0.09 0.15 0.17 0.14 0.14 0.13 0.14 0.15 0.12 0.08 0.06 0.06 0.05
0.29 0.48 0.80 0.93 0.77 0.65 0.60 0.50 0.43 0.48 0.54 0.47 0.40 0.40 0.43 0.40 0.38 0.34 0.30 0.28 0.24 0.21 0.19 0.18 0.18 0.17 0.14 0.13 0.11 0.08 0.07 0.07 0.13 0.14 0.12 0.11 0.10 0.09 0.09 0.11 0.10 0.03 0.02 0.02